[[{"header":{"parameterUnit":"m.s-1","parameterCategory":1,"la1":30.2991,"la2":30.254,"lo1":-89.0895,"lo2":-89.0444,"dy":0.0017,"dx":0.0017,"nx":28,"ny":28,"refTime":"2024-03-22T21:00:00:Z","depth":0,"parameterNumber":2,"parameterNumberName":"U-component_of_WINDS"},"data":[0,0,0,0,0,0,0,0,0,0,0,0,0,0,0,0,0,0,0,0,0,0,0,0,0,0,0,0,0,0,0,0,0,0,0,0,0,0,0,0,0,0,0,0,0,0,0,0,0,0,0,0,0,0,0,0,0,0,0.8535,0.8535,0,0.8546,0.8546,0.8546,0.8541,0.8541,0.854,0.854,0.855,0.8551,0.8552,0,0,0,0,0,0,0,0,0,0,0,0,0,0.8511,0.8512,0.8535,0.8535,0.8536,0.8546,0.8546,0.8546,0.8541,0.8541,0.854,0.854,0.855,0.8551,0.8552,0,0,0,0,0,0,0,0,0,0,0,0,0,0.8522,0.8512,0.8535,0.8534,0.8534,0.8546,0.8546,0.8546,0.8541,0.8541,0.854,0.854,0.855,0.8551,0.8552,0.8565,0,0,0.8554,0.8554,0,0,0,0,0,0,0,0,0.8521,0.8523,0.8534,0.8534,0.8534,0.8542,0.8541,0.8552,0.8541,0.8538,0.854,0.854,0.8548,0.8549,0.8552,0.8565,0.8566,0.8554,0.8555,0.8555,0.8555,0,0,0,0,0,0,0,0.8521,0.8522,0.8539,0.8534,0.8534,0.8534,0.8535,0.8544,0.8545,0.8539,0.8538,0.854,0.8548,0.8551,0.8552,0.8566,0.8554,0.8555,0.8555,0.8556,0.8593,0.8594,0,0,0,0,0,0,0.852,0.8522,0.8539,0.854,0.8527,0.8534,0.8535,0.854,0.8545,0.8546,0.854,0.8539,0.855,0.8551,0.8552,0.8569,0.8555,0.8556,0.8556,0.8593,0.8593,0.8594,0,0,0,0,0,0,0.8519,0.8521,0.8539,0.8531,0.8533,0.8535,0.854,0.854,0.8543,0.8546,0.8547,0.8543,0.8549,0.8551,0.8562,0.857,0.8556,0.8557,0.8592,0.8593,0.8594,0.8603,0,0,0,0,0,0,0.8519,0.8521,0.8526,0.8531,0.8533,0.8548,0.854,0.8541,0.8545,0.8544,0.8549,0.8549,0.8549,0.8561,0.8563,0.857,0.8557,0.8591,0.8592,0.8593,0.8602,0.8604,0.8605,0,0,0,0,0,0.8518,0.8527,0.8526,0.8528,0.8539,0.8549,0.855,0.855,0.8545,0.855,0.8553,0.8549,0.8569,0.8562,0.8564,0.8572,0.8591,0.8592,0.8593,0.8601,0.8603,0.8605,0,0,0,0,0,0,0.8522,0.8528,0.8527,0.8538,0.8543,0.8548,0.8554,0.8552,0.8558,0.8557,0.8557,0.8558,0.857,0.8572,0.8565,0.8586,0.8579,0.8581,0.8584,0.8587,0.8588,0.8588,0.8558,0,0,0,0,0,0.8525,0.8532,0.8537,0.8546,0.8549,0.8551,0.8555,0.8555,0.856,0.8562,0.8565,0.857,0.8577,0.8582,0.8589,0.8602,0.8604,0.8609,0.8611,0.8612,0.8614,0.8623,0.8625,0.8598,0.8598,0.8598,0,0,0.853,0.8534,0.8538,0.8548,0.8551,0.8559,0.8553,0.8561,0.8567,0.8563,0.8574,0.8577,0.8582,0.8595,0.8601,0.8598,0.8622,0.8614,0.8615,0.8615,0.8624,0.8627,0.8629,0.8598,0.8598,0.8598,0,0,0.8543,0.8546,0.8556,0.856,0.8567,0.8568,0.8571,0.8576,0.8578,0.8589,0.8587,0.8594,0.8606,0.8611,0.8615,0.8633,0.8631,0.8635,0.8644,0.8653,0.8656,0.8657,0.8665,0.8667,0.8637,0.8637,0.8637,0,0.8548,0.856,0.8561,0.857,0.8575,0.8572,0.8582,0.8586,0.8594,0.8598,0.8594,0.8611,0.8614,0.8629,0.8634,0.8637,0.864,0.8634,0.8655,0.8657,0.8659,0.8666,0.8669,0.8637,0.8637,0.8637,0.8637,0,0.8567,0.8575,0.8582,0.8591,0.8597,0.8606,0.8609,0.8614,0.8614,0.8617,0.8629,0.8634,0.8642,0.8646,0.8645,0.8661,0.8659,0.8655,0.8648,0.8662,0.8669,0.8671,0.8638,0.8638,0.8638,0.8638,0,0,0.8582,0.8593,0.8595,0.86,0.8608,0.8614,0.8625,0.8634,0.8639,0.8645,0.8654,0.8666,0.8663,0.8668,0.8668,0.8676,0.8691,0.8671,0.8671,0.8675,0.871,0.8713,0.8716,0.869,0.869,0.8691,0.871,0,0.8596,0.8614,0.8616,0.8632,0.8641,0.864,0.8649,0.8655,0.8658,0.8666,0.8669,0.8678,0.8673,0.8676,0.8684,0.8688,0.8698,0.8686,0.8699,0.8699,0.8697,0.872,0.8722,0.8741,0.8713,0.8713,0.8713,0,0.8615,0.8623,0.864,0.8649,0.8652,0.866,0.867,0.8677,0.8685,0.8687,0.8693,0.8693,0.8704,0.8697,0.8713,0.8705,0.8711,0.8714,0.8714,0.8715,0.8707,0.8722,0.8746,0.8749,0.8717,0.8717,0.8717,0,0.8625,0.864,0.8653,0.8657,0.8667,0.8673,0.8677,0.8685,0.8691,0.8699,0.8703,0.8713,0.8718,0.8726,0.8728,0.8723,0.8745,0.8737,0.8747,0.8747,0.8752,0.8751,0.8778,0.8755,0.8755,0.8755,0.8755,0,0.8641,0.8652,0.8658,0.8666,0.8678,0.8681,0.8693,0.8698,0.8705,0.8714,0.8714,0.8722,0.8725,0.8735,0.8737,0.8751,0.8753,0.8755,0.8756,0.8755,0.8755,0.8759,0.8758,0.8755,0.8755,0.8755,0.8755,0,0.8654,0.8658,0.8673,0.8682,0.8684,0.8693,0.8701,0.871,0.8713,0.8725,0.8728,0.8734,0.8745,0.8749,0.8762,0.8764,0.878,0.878,0.8778,0.8778,0.8788,0.8787,0.8818,0.8822,0.8796,0.8796,0.8797,0,0.8664,0.8672,0.8683,0.869,0.8695,0.8705,0.8712,0.8715,0.8722,0.8733,0.874,0.8751,0.8761,0.8779,0.8785,0.8795,0.8795,0.8805,0.8797,0.8797,0.8796,0.8796,0.8797,0.8807,0.8807,0.8807,0.8807,0,0.8681,0.8684,0.8693,0.8704,0.8713,0.8721,0.873,0.8735,0.874,0.8748,0.876,0.8768,0.8783,0.8794,0.8806,0.8811,0.881,0.881,0.8813,0.8813,0.8812,0.8813,0.8783,0.8809,0.8809,0.8809,0.8809,0.8809,0.8693,0.8702,0.8711,0.8723,0.873,0.8738,0.8747,0.8753,0.8763,0.8775,0.8777,0.879,0.88,0.8815,0.8821,0.8832,0.8829,0.8833,0.8834,0.8835,0.8836,0.881,0.8834,0.8834,0.8834,0.8834,0.8834,0,0.8711,0.8718,0.8729,0.8741,0.8751,0.875,0.876,0.8768,0.878,0.8789,0.8799,0.8814,0.8826,0.8833,0.8845,0.8853,0.8853,0.8856,0.8855,0.8857,0.8838,0.8834,0.8856,0.8856,0.8856,0.8856,0.8856,0.8856,0.8722,0.8736,0.874,0.8759,0.8766,0.8779,0.8785,0.8793,0.8801,0.8818,0.8828,0.8833,0.8842,0.8855,0.8866,0.8868,0.8873,0.8877,0.8878,0.886,0.8858,0.8856,0.8853,0.8877,0.8877,0.8897,0.8897,0.8897]},{"header":{"parameterUnit":"m.s-1","parameterCategory":1,"la1":30.2991,"la2":30.254,"lo1":-89.0895,"lo2":-89.0444,"dy":0.0017,"dx":0.0017,"nx":28,"ny":28,"refTime":"2024-03-22T21:00:00:Z","depth":0,"parameterNumber":3,"parameterNumberName":"V-component_of_WINDS"},"data":[0,0,0,0,0,0,0,0,0,0,0,0,0,0,0,0,0,0,0,0,0,0,0,0,0,0,0,0,0,0,0,0,0,0,0,0,0,0,0,0,0,0,0,0,0,0,0,0,0,0,0,0,0,0,0,0,0,0,0.4014,0.4015,0,0.4097,0.4098,0.4099,0.4111,0.4111,0.411,0.4109,0.4194,0.4197,0.42,0,0,0,0,0,0,0,0,0,0,0,0,0,0.3861,0.3864,0.4014,0.4015,0.4016,0.4097,0.4098,0.41,0.4112,0.4111,0.411,0.4109,0.4193,0.4196,0.42,0,0,0,0,0,0,0,0,0,0,0,0,0,0.3934,0.3865,0.4013,0.4032,0.4034,0.4097,0.4098,0.41,0.4112,0.4111,0.4109,0.4108,0.4192,0.4196,0.42,0.4251,0,0,0.4214,0.4216,0,0,0,0,0,0,0,0,0.393,0.394,0.4028,0.403,0.4033,0.4093,0.4076,0.415,0.4112,0.4082,0.4109,0.4108,0.4161,0.4168,0.4186,0.4255,0.4258,0.4214,0.4217,0.4219,0.422,0,0,0,0,0,0,0,0.3925,0.3936,0.4047,0.4029,0.4032,0.4034,0.4044,0.409,0.4127,0.4085,0.4086,0.4096,0.4162,0.4182,0.4188,0.426,0.4214,0.4218,0.4221,0.4223,0.4372,0.4373,0,0,0,0,0,0,0.3917,0.3932,0.4044,0.4049,0.3978,0.4038,0.4048,0.4075,0.4127,0.4133,0.4096,0.4096,0.4175,0.4183,0.4191,0.4253,0.4219,0.4223,0.4226,0.4371,0.4372,0.4374,0,0,0,0,0,0,0.3914,0.3927,0.4041,0.3991,0.4006,0.4042,0.4072,0.4077,0.4097,0.4135,0.4142,0.411,0.4174,0.4185,0.4236,0.4256,0.4225,0.4229,0.4369,0.4371,0.4373,0.4378,0,0,0,0,0,0,0.3909,0.3926,0.3946,0.3991,0.4008,0.4085,0.4073,0.408,0.4104,0.4104,0.415,0.4156,0.4174,0.4229,0.424,0.4262,0.4233,0.4368,0.437,0.4372,0.4376,0.438,0.4383,0,0,0,0,0,0.3904,0.3944,0.3947,0.3961,0.4035,0.4086,0.4095,0.4116,0.4106,0.4126,0.4151,0.4155,0.4252,0.4234,0.4247,0.427,0.4366,0.4369,0.4372,0.4374,0.4379,0.4383,0,0,0,0,0,0,0.3901,0.3951,0.3954,0.4011,0.4044,0.4088,0.4114,0.412,0.4156,0.4155,0.4178,0.4188,0.4237,0.4258,0.4238,0.4321,0.4308,0.4314,0.4305,0.431,0.4313,0.4308,0.4236,0,0,0,0,0,0.3907,0.3945,0.3986,0.4031,0.4048,0.4078,0.4101,0.4114,0.4149,0.4163,0.4191,0.4225,0.4262,0.4287,0.4324,0.4378,0.4388,0.44,0.4404,0.4406,0.4411,0.444,0.4446,0.4383,0.4383,0.4383,0,0,0.3919,0.3951,0.3974,0.4032,0.4059,0.4097,0.409,0.4131,0.4159,0.4169,0.4219,0.424,0.4279,0.4331,0.4355,0.435,0.443,0.441,0.4412,0.4416,0.4444,0.445,0.4455,0.4385,0.4385,0.4385,0,0,0.3962,0.399,0.4031,0.4058,0.4099,0.4118,0.4128,0.417,0.4185,0.4235,0.4243,0.4276,0.4341,0.4368,0.439,0.444,0.4445,0.4451,0.447,0.4498,0.4503,0.4507,0.4525,0.4531,0.4455,0.4455,0.4455,0,0.3973,0.4031,0.4051,0.4091,0.4116,0.4126,0.4167,0.4192,0.4242,0.4259,0.4252,0.4333,0.436,0.4418,0.443,0.4447,0.4458,0.4447,0.45,0.4505,0.451,0.4527,0.4533,0.4456,0.4456,0.4456,0.4456,0,0.4042,0.4082,0.411,0.4159,0.4186,0.4226,0.4251,0.4276,0.4285,0.4305,0.4355,0.4387,0.443,0.4444,0.4454,0.4503,0.4499,0.4496,0.4484,0.4516,0.4532,0.4539,0.4457,0.4457,0.4457,0.4456,0,0,0.4088,0.4145,0.4155,0.4177,0.4221,0.4252,0.4292,0.4334,0.4355,0.4389,0.4422,0.4476,0.4473,0.4498,0.451,0.4534,0.4571,0.4528,0.4529,0.4536,0.4627,0.463,0.4637,0.4573,0.4575,0.4576,0.4624,0,0.4136,0.4208,0.4226,0.4287,0.4324,0.4332,0.4367,0.4397,0.4416,0.4449,0.4469,0.4506,0.4499,0.4514,0.4539,0.4562,0.459,0.4558,0.4605,0.4606,0.4596,0.4646,0.465,0.4694,0.4631,0.4632,0.4632,0,0.4203,0.4238,0.4303,0.4341,0.4357,0.4388,0.4427,0.4459,0.4492,0.4504,0.4531,0.454,0.458,0.4565,0.462,0.4598,0.4618,0.4631,0.4633,0.464,0.4623,0.4654,0.4708,0.4715,0.4643,0.4642,0.4641,0,0.423,0.4293,0.434,0.4358,0.4404,0.4425,0.4445,0.4478,0.4501,0.4535,0.455,0.4588,0.4609,0.4637,0.4656,0.4643,0.471,0.4696,0.472,0.472,0.4736,0.4735,0.4794,0.4746,0.4746,0.4746,0.4746,0,0.4283,0.4323,0.4353,0.4382,0.4426,0.4444,0.4487,0.4507,0.4535,0.4567,0.4576,0.4606,0.4628,0.466,0.4675,0.4718,0.4727,0.4738,0.4741,0.4738,0.4737,0.4752,0.475,0.4748,0.4747,0.4747,0.4747,0,0.4322,0.4344,0.4395,0.4434,0.4444,0.4475,0.4507,0.4535,0.4552,0.4593,0.4603,0.4631,0.4669,0.469,0.4738,0.4748,0.4797,0.4798,0.4786,0.4788,0.4811,0.4809,0.4884,0.4895,0.4838,0.4839,0.4839,0,0.4355,0.4386,0.4427,0.4449,0.4469,0.4505,0.4529,0.4547,0.4571,0.4611,0.4634,0.4672,0.4705,0.4765,0.4789,0.4826,0.4829,0.4852,0.4835,0.483,0.483,0.4828,0.4831,0.4856,0.4857,0.4857,0.4857,0,0.4411,0.442,0.4455,0.4492,0.452,0.4551,0.4581,0.4598,0.4621,0.4648,0.4687,0.4712,0.4761,0.4799,0.4837,0.4856,0.4861,0.4862,0.487,0.4868,0.486,0.4865,0.4795,0.4861,0.4861,0.4861,0.486,0.486,0.4449,0.4476,0.4509,0.4546,0.4571,0.4598,0.4626,0.4646,0.4679,0.4721,0.4729,0.477,0.4801,0.4853,0.4873,0.4905,0.49,0.4911,0.4914,0.4917,0.4918,0.4853,0.4912,0.4912,0.4911,0.4911,0.4911,0,0.4506,0.4527,0.4561,0.4603,0.4632,0.4632,0.4665,0.4689,0.4726,0.4754,0.4785,0.483,0.4866,0.4892,0.4929,0.495,0.4953,0.4959,0.4958,0.4963,0.492,0.491,0.4956,0.4956,0.4956,0.4956,0.4956,0.4956,0.454,0.4585,0.4597,0.4654,0.4675,0.4716,0.4734,0.4759,0.4782,0.4831,0.4862,0.4878,0.4905,0.4944,0.4977,0.4983,0.4997,0.5003,0.501,0.497,0.4966,0.4961,0.4952,0.5006,0.5006,0.505,0.5051,0.5051]}]]